Mobile, AL

12:10 PM CDT on June 28, 2017 (GMT -0500)
Mobile Regional

Weather History for KMOB - May, 2014

Change the Weather History Date:

Wednesday, May 7, 2014

  Actual Average Record
Temperature  
Mean Temperature 72 °F 72 °F  
Max Temperature 82 °F 83 °F 93 °F (1952)
Min Temperature 62 °F 61 °F 45 °F (1992)
Cooling Degree Days 7 7  
Month to date cooling degree days 28 45  
Year to date cooling degree days 143 204  
Growing Degree Days 22 (Base 50)    
Moisture  
Dew Point 65 °F    
Average Humidity 77    
Maximum Humidity 100    
Minimum Humidity 54    
Precipitation  
Precipitation 0.00 in 0.16 in 4.46 in (1972)
Month to date precipitation T 1.10  
Year to date precipitation 31.71 22.80  
Sea Level Pressure  
Sea Level Pressure 30.06 in    
Wind  
Wind Speed 8 mph (SSE)    
Max Wind Speed 18 mph    
Max Gust Speed 27 mph    
Visibility 10 miles    
Events      
T = Trace of Precipitation, MM = Missing Value Source: NWS Daily Summary

Daily Weather History Graph

Daily Weather History Graph

Search for Another Location

Airport or City:

Trip Planner

Search our weather history database for the weather conditions in past years. The results will help you decide how hot, cold, wet, or windy it might be!

Date:

Astronomy

May. 07, 2014 Rise Set
Actual Time 6:03 AM CDT 7:35 PM CDT
Civil Twilight 5:38 AM CDT 8:01 PM CDT
Nautical Twilight 5:07 AM CDT 8:32 PM CDT
Astronomical Twilight 4:34 AM CDT 9:05 PM CDT
Moon 1:07 PM CDT (5/7) 1:33 AM CDT (5/7)
Length of Visible Light 14h 23m
Length of Day
13h 31m
First Quarter, 55% of the Moon is Illuminated
May 7
First Quarter
May 14
Full
May 21
Last Quarter
May 28
New
Jun 5
First Quarter

Hourly Weather History & Observations

Time (CDT) Temp. Heat Index Dew Point Humidity Pressure Visibility Wind Dir Wind Speed Gust Speed Precip Events Conditions
12:56 AM 64.9 °F - 62.1 °F 90% 30.00 in 10.0 mi SSE 4.6 mph - N/A   Scattered Clouds
1:56 AM 64.9 °F - 62.1 °F 90% 29.99 in 10.0 mi SSE 3.5 mph - N/A   Clear
2:56 AM 64.0 °F - 62.1 °F 93% 29.99 in 10.0 mi SSE 4.6 mph - N/A   Clear
3:56 AM 64.0 °F - 62.1 °F 93% 30.00 in 10.0 mi Calm Calm - N/A   Clear
4:56 AM 63.0 °F - 62.1 °F 97% 30.01 in 10.0 mi Calm Calm - N/A   Clear
5:56 AM 64.0 °F - 64.0 °F 100% 30.03 in 7.0 mi SE 3.5 mph - N/A   Mostly Cloudy
6:56 AM 66.9 °F - 66.0 °F 97% 30.06 in 7.0 mi SE 3.5 mph - N/A   Mostly Cloudy
10:56 AM 80.1 °F 81.5 °F 63.0 °F 56% 30.11 in 10.0 mi South 17.3 mph 24.2 mph N/A   Mostly Cloudy
11:56 AM 81.0 °F 83.0 °F 66.0 °F 60% 30.12 in 10.0 mi SSE 15.0 mph - N/A   Mostly Cloudy
12:56 PM 81.0 °F 83.3 °F 66.9 °F 62% 30.11 in 10.0 mi SSE 15.0 mph - N/A   Mostly Cloudy
1:56 PM 79.0 °F - 66.9 °F 66% 30.10 in 10.0 mi SSE 15.0 mph - N/A   Mostly Cloudy
2:56 PM 81.0 °F 82.5 °F 64.0 °F 56% 30.09 in 10.0 mi South 11.5 mph - N/A   Mostly Cloudy
3:56 PM 80.1 °F 82.1 °F 66.0 °F 62% 30.07 in 10.0 mi SSE 13.8 mph - N/A   Mostly Cloudy
4:56 PM 79.0 °F - 64.9 °F 62% 30.07 in 10.0 mi South 9.2 mph - N/A   Mostly Cloudy
5:56 PM 75.9 °F - 64.9 °F 69% 30.08 in 10.0 mi SE 12.7 mph - N/A   Mostly Cloudy
6:56 PM 73.9 °F - 66.0 °F 76% 30.07 in 10.0 mi SSE 10.4 mph - N/A   Mostly Cloudy
7:56 PM 72.0 °F - 66.0 °F 81% 30.06 in 10.0 mi SSE 6.9 mph - N/A   Scattered Clouds
8:56 PM 69.1 °F - 66.0 °F 90% 30.06 in 10.0 mi SSE 4.6 mph - N/A   Partly Cloudy
9:56 PM 66.9 °F - 64.9 °F 93% 30.08 in 10.0 mi SE 4.6 mph - N/A   Partly Cloudy
10:56 PM 66.0 °F - 64.9 °F 96% 30.08 in 10.0 mi SE 4.6 mph - N/A   Partly Cloudy